Voltar ao catálogo

CZ-3B DEB

LostGTO
NORAD 42459·DEBRIS·🇨🇳 China

Lançado Sep 4, 2010 de Xichang Satellite Launch Center

Loading…

TLE

ObsoletoSource: Space-Track

Época: Mar 2, 2026, 19:22 UTC

1 42459U 10042AA  26061.80757901 -.00000288  00000-0  00000-0 0  9992
2 42459  27.4941 321.4817 7260773 238.9864  31.0593  1.87009469 76649

Acompanhe CZ-3B DEB em tempo real com AllMySat

Download on the App Store